Regional Weather Roundup
Issued by NWS San Diego, CA

Home | Current Version | Previous Version | Text Only | Print | Product List | Glossary On
Versions: 1 2 3 4 5 6 7 8 9 10 11 12 13 14 15 16 17 18 19 20 21 22 23 24 25 26 27
000
ASUS46 KSGX 171711
RWRSGX

SAN DIEGO HOURLY WEATHER ROUNDUP
NATIONAL WEATHER SERVICE SAN DIEGO CA
1000 AM PDT THU JUN 17 2021

NOTE: "FAIR" INDICATES FEW OR NO CLOUDS BELOW 12,000 FEET WITH NO
SIGNIFICANT WEATHER AND/OR OBSTRUCTIONS TO VISIBILITY.

CAZ042-043-060-061-PZZ750-775-171800-

GREATER SAN DIEGO AREA

CITY           SKY/WX    TMP DP  RH WIND       PRES   REMARKS
SAN DIEGO AP   CLOUDY    67  61  81 SE5       29.86S FOG
BROWN FIELD    SUNNY     72  60  66 NW5       29.85S
MIRAMAR MCAS   SUNNY     71  61  70 N3        29.84F
MONTGOMERY FLD MOSUNNY   69  61  75 CALM      29.85F
GILLESPIE FLD  SUNNY     70  61  73 CALM      29.84F
LEMON GROVE      N/A     66  64  94 CALM      29.82F

$$

NORTH SAN DIEGO COUNTY

CITY           SKY/WX    TMP DP  RH WIND       PRES   REMARKS
CAMP PENDLETON PTSUNNY   69  61  75 CALM      29.85S
OCEANSIDE AP   CLOUDY   N/A N/A N/A CALM      29.84F
OCEANSIDE HBR    N/A     64  63  96 CALM      29.91F
VISTA            N/A     67  62  84 SW1       29.83S
CARLSBAD       CLOUDY    64  61  90 CALM      29.84F
ENCINITAS        N/A     65  64  95 E3          N/A
LA JOLLA SCRIP   N/A     65  60  84 CALM      29.84F
FALLBROOK      CLOUDY    66  61  82 CALM      29.86S
ESCONDIDO        N/A     79  65  61 CALM      29.82F
SAN MARCOS       N/A     71  64  77 CALM      29.86F
RANCHO BERNARD   N/A     70  64  81 W2        29.82F
POWAY            N/A     76  65  68 SE2       29.84F

$$

EAST SAN DIEGO COUNTY

CITY           SKY/WX    TMP DP  RH WIND       PRES   REMARKS
RAMONA         SUNNY     80  56  43 NW9       29.86S
LA MESA          N/A     67  62  82 CALM      29.78F
DESCANSO N       N/A     92  53  26 W3        29.75F

$$

ORANGE COUNTY AND THE LOS ANGELES BASIN

CITY           SKY/WX    TMP DP  RH WIND       PRES   REMARKS
JOHN WAYNE AP  MOSUNNY   71  61  70 SW9       29.84R
LAGUNA BEACH     N/A     66  63  89 CALM      29.83F
LAKE FOREST FR   N/A     75  60  60 W5        29.70R
HUNTINGTON BCH   N/A     65 -39   1 SE5       29.84R
LOS ALAMITOS   PTSUNNY   68  64  89 SE3       29.85R FOG
FULLERTON      MOSUNNY   69  61  75 CALM      29.83S
LONG BEACH     PTSUNNY   63  60  90 S7        29.84S
L.A. AP        PTSUNNY   71  61  70 SW5       29.83S
L.A. DOWNTOWN  MOSUNNY   76  61  59 VRB3      29.82S

$$

THE INLAND EMPIRE

CITY           SKY/WX    TMP DP  RH WIND       PRES   REMARKS
CORONA         MOSUNNY   82  62  50 W9        29.83F
UPLAND AP      FAIR      84  57  39 SW5       29.85F
CHINO          PTSUNNY   86  59  39 N3        29.83F
ONTARIO        MOSUNNY   87  56  34 VRB6      29.83S
SAN BERNARDINO MOSUNNY   86  54  32 NW3       29.84S
RIVERSIDE AP   MOSUNNY   85  57  38 W3        29.82F
MORENO VALLEY    N/A     89  60  36 CALM      29.79S
MARCH ARB      MOSUNNY   89  53  28 CALM      29.85S
HORSETHIEF CYN   N/A     91  53  27 NW7       29.77F
PERRIS           N/A     88  50  27 CALM      29.82F
LAKE ELSINORE    N/A     89  56  32 CALM      29.71S
HEMET AP       FAIR      91  52  27 CALM      29.85F
FRENCH VALLEY  FAIR      86  54  32 SW6       29.85S
TEMECULA         N/A     84  63  49 S2        29.80F

$$

SAN BERNARDINO AND RIVERSIDE COUNTY MOUNTAINS

CITY           SKY/WX    TMP DP  RH WIND       PRES   REMARKS
BIG BEAR AP    MOSUNNY   82  28  14 NE5       30.28F
BIG BEAR LAKE    N/A     77  41  27 CALM      29.78F
WRIGHTWOOD       N/A     87  39  18 CALM      29.63F
ANGELUS OAKS     N/A     83  48  29 CALM      29.61F
IDYLLWILD        N/A     83  45  26 SE1       29.64S

$$

SOUTHERN DESERT INCLUDING THE COACHELLA VALLEY

CITY           SKY/WX    TMP DP  RH WIND       PRES   REMARKS
PALM SPRINGS   MOSUNNY  103  51  17 CALM      29.73F HX 100
THOUSAND PALMS   N/A    101  56  21 S5        29.65F HX 100
PALM DESERT      N/A    103  59  23 CALM      31.24  HX 103
INDIO            N/A    101  57  23 W3        29.67F HX 100
THERMAL        SUNNY    104  52  17 VRB5      29.66F HX 101
BORREGO AP     FAIR     102  43  13 CALM      29.71F HX  98
OCOTILLO WELLS   N/A    108  54  17 NE1       29.62F HX 106
CANEBRAKE        N/A    103  45  14 CALM      29.62F HX  99
BLYTHE         SUNNY    101  51  18 CALM      29.69F HX  98
IMPERIAL AP    SUNNY     97  64  33 W3        29.67F HX  99
EL CENTRO NAS  MOSUNNY  100  66  32 VRB3      29.69F HX 104
YUMA AZ        MOSUNNY   97  49  19 S7        29.69F

$$

UPPER DESERT

CITY           SKY/WX    TMP DP  RH WIND       PRES   REMARKS
VICTORVILLE AP SUNNY    N/A N/A N/A CALM      29.93F
HESPERIA         N/A     96  38  13 NE3       29.52F
APPLE VALLEY     N/A     92  55  27 CALM      29.76F
PALMDALE       SUNNY     94  42  16 S3        29.91S
LANCASTER      SUNNY     95  41  15 CALM      29.89F
EDWARDS AFB    MOSUNNY   89  38  17 CALM      29.88R
GRAY BUTTE AP  FAIR      97  37  12 CALM      29.92S
DAGGETT        SUNNY    102  37  10 W8        29.83F HX  96
29 PALMS N     SUNNY    100  30   8 CALM      29.90F
29 PALMS JTNP    N/A    103  31   8 CALM      29.63F HX  96
NEEDLES        SUNNY    108  42  10 CALM      29.72F HX 102

$$

REGIONAL REPORTS

CITY           SKY/WX    TMP DP  RH WIND       PRES   REMARKS
SANTA BARBARA  CLOUDY    63  61  93 SE6       29.82F FOG
SANDBERG       SUNNY     93  40  15 S7        30.08S
LAS VEGAS NV   PTSUNNY  101  37  11 E9        29.87S HX  95
PHOENIX AZ     MOSUNNY  103  47  15 SE7       29.75F HX  99
TIJUANA        SUNNY     70  61  73 W6        29.87S HAZE
ENSENADA NW      N/A     64  32  30 W2        29.82F

$$

OFFSHORE ISLANDS

CITY           SKY/WX    TMP DP  RH WIND       PRES   REMARKS
CATALINA ARPT  SUNNY     84  47  27 SE9       29.88R
SAN CLEMENTE I PTSUNNY   63  60  90 SE10      29.84S FOG
SAN NICOLAS IS FOG       59  59 100 SE13      29.82S VSB 1/2

$$

MARINE AND OFFSHORE BUOY REPORTS

STATION/POSITION SKY/WX   TEMP    WIND        PRES    VSBY  SWELL
                          AIR SEA DIR/SP/G                  HT/PER/DIR
                          (F)     (DEG/KT/KT) (MB)    (MI)  (FT/S/D)
TANNER BANKS               58 59  130/  8/ 12 1008.9R         7/300/ 8
S CLEMENTE BASIN           62 63  140/ 10/ 12 1009.8F         5/290/ 9
SAN NICOLAS IS.               60                N/A           3/190/15
SO. S. ROSA ISLA           58                 1010.9R         7/300/ 9
W. S. BARBARA CH           58 58   CALM  /  2 1010.1R         5/290/ 9
M. S. BARBARA CH           61     110/  4/  6 1010.7S         3/260/ 9
S. MONICA BASIN            62 65  140/ 10/ 12 1010.3R         3/180/15
S PEDRO CHANNEL               64                N/A           2/180/14
OCEANSIDE OFFSHR              64                N/A           3/190/15
TORREY PINES OTR              65                N/A           2/200/13
SAN DIEGO BAY                 70              1010.8F
IMPERIAL BEACH                64                N/A           2/230/14
POINT LOMA SOUTH              67                N/A           3/180/14

$$




USA.gov is the U.S. government's official web portal to all federal, state and local government web resources and services.